AirNav   Everest Fuels
 
 744 users online  

KAIV George Downer Airport
Aliceville, Alabama, USA

GOING TO ALICEVILLE?


FAA INFORMATION EFFECTIVE 18 JUNE 2020

Location

FAA Identifier: AIV
Lat/Long: 33-06-24.2800N 088-11-49.8300W
33-06.404667N 088-11.830500W
33.1067444,-88.1971750
(estimated)
Elevation: 150 ft. / 45.7 m (surveyed)
Variation: 02W (2015)
From city: 2 miles SW of ALICEVILLE, AL
Time zone: UTC -5 (UTC -6 during Standard Time)
Zip code: 35442

Airport Operations

Airport use: Open to the public
Activation date: 10/1961
Control tower: no
ARTCC: MEMPHIS CENTER
FSS: ANNISTON FLIGHT SERVICE STATION
NOTAMs facility: ANB (NOTAM-D service available)
Attendance: UNATNDD
Wind indicator: lighted
Segmented circle: no
Lights: ACTVT MIRL & REILS RY 06/24 - CTAF.
Beacon: white-green (lighted land airport)
Operates sunset to sunrise.

Airport Communications

CTAF/UNICOM: 122.8
MEMPHIS ARTCC APPROACH: 135.6
MEMPHIS ARTCC DEPARTURE: 135.6
  • APCH/DEP SVC PRVDD BY MEMPHIS ARTCC ON FREQS 127.1/269.4 (COLUMBUS RCAG) WHEN COLUMBUS APCH CTL CLSD.

Nearby radio navigation aids

VOR radial/distance  VOR name  Freq  Var
IGBr141/27.7BIGBEE VORTAC116.2004E
CBMr159/34.3CALEDONIA VORTAC115.2000E
LDKr252/34.4CRIMSON VORTAC117.8003E

Airport Services

Fuel available: 100LL
Parking: tiedowns
Airframe service: NONE
Powerplant service: NONE
Bottled oxygen: NONE
Bulk oxygen: NONE

Runway Information

Runway 6/24

Dimensions: 5001 x 80 ft. / 1524 x 24 m
Surface: asphalt, in good condition
Runway edge lights: medium intensity
RUNWAY 6  RUNWAY 24
Latitude: 33-06.208833N33-06.600500N
Longitude: 088-12.261667W088-11.399333W
Elevation: 142.8 ft.149.8 ft.
Traffic pattern: leftleft
Runway heading: 064 magnetic, 062 true244 magnetic, 242 true
Markings: nonprecision, in good conditionnonprecision, in good condition
Runway end identifier lights: yesyes
Touchdown point: yes, no lightsyes, no lights

Airport Ownership and Management from official FAA records

Ownership: Publicly-owned
Owner: CITY OF ALICEVILLE
215 FIRST ST NE
ALICEVILLE, AL 35442
Phone 205-373-6611
ALTERNATE PHONE NUMBER 205-315-1057.
Manager: CITY OF ALICEVILLE
11135 HWY 17
ALICEVILLE, AL 35442
Phone 205-373-0446

Airport Operational Statistics

Aircraft based on the field: 3
Single engine airplanes: 3
    
Aircraft operations: avg 103/week *
100% transient general aviation
* for 12-month period ending 01 October 2019

Additional Remarks

TWY LGTS FOR TWY TURNOFF ONLY.
FOR CD CTC COLUMBUS APCH AT 662-434-3044.

Instrument Procedures

NOTE: All procedures below are presented as PDF files. If you need a reader for these files, you should download the free Adobe Reader.

NOT FOR NAVIGATION. Please procure official charts for flight.
FAA instrument procedures published for use from 18 June 2020 at 0901Z to 16 July 2020 at 0900Z.

 
IAPs - Instrument Approach Procedures
RNAV (GPS) RWY 06   download (209KB)
RNAV (GPS) RWY 24   download (203KB)
NOTE: Special Take-Off Minimums/Departure Procedures apply   download (250KB)

Other nearby airports with instrument procedures:

3M8 - North Pickens Airport (19 nm NE)
KUBS - Columbus-Lowndes County Airport (23 nm NW)
KGTR - Golden Triangle Regional Airport (28 nm NW)
KTCL - Tuscaloosa Regional Airport (30 nm E)
M51 - Oktibbeha Airport (34 nm NW)
 
Loc | Ops | Rwys | IFR | FBO | Links
Com | Nav | Svcs | Stats | Notes
Area around KAIV (George Downer Airport)
 
Road maps at: MapQuest Bing Google
 
Aerial photo
WARNING: Photo may not be current or correct
Aerial photo of KAIV (George Downer Airport)
Photo by David White
Photo taken 07-Nov-2019
looking southwest.

Do you have a better or more recent aerial photo of George Downer Airport that you would like to share? If so, please send us your photo.

 
Sectional chart

 
Airport distance calculator
Flying to George Downer Airport? Find the distance to fly.

From to KAIV

Sunrise and sunset
Times for 06-Jul-2020
 Local
(UTC-5)
 Zulu
(UTC)
Morning civil twilight05:2310:23
Sunrise05:5110:51
Sunset20:0401:04
Evening civil twilight20:3301:33

Current date and time
Zulu (UTC)  07-Jul-2020 03:42:35
Local (UTC-5)  06-Jul-2020 22:42:35
 
METAR
KGTR 
28nm NW 
070256Z AUTO 11003KT 10SM CLR 26/24 A2994 RMK AO2 SLP144 T02560239 53006
KTCL 
30nm E 
070253Z AUTO 00000KT 10SM FEW032 25/23 A2994 RMK AO2 SLP136 T02500233 53001
KCBM 
34nm N 
070256Z AUTO 10006KT 10SM M M M RMK AO2 SLPNO RVRNO $
KSTF 
38nm NW 
070315Z AUTO 12003KT 10SM CLR 25/23 A2995 RMK AO2
KNMM 
39nm SW 
070256Z 00000KT 4SM BR SCT065 OVC170 24/23 A2994 RMK AO2 RAE04 SLP145 T2 SET P0000 60023 T02390233 53006
KDYA 
40nm S 
070315Z AUTO 00000KT 7SM SCT002 A2994 RMK AO2
KM40 
48nm N 
070315Z AUTO VRB03KT 10SM CLR 26/26 A2996 RMK AO2
TAF
KGTR 
28nm NW 
061831Z 0619/0718 04003KT P6SM FEW020 SCT250 FM062100 08006KT P6SM VCTS SCT030CB BKN100 FM070100 10003KT P6SM SCT100 BKN250 FM071000 00000KT P6SM BKN007 FM071500 VRB03KT P6SM BKN015
KTCL 
30nm E 
061752Z 0618/0718 09006KT P6SM VCTS SCT028CB BKN050 FM062100 00000KT P6SM SHRA VCTS SCT022CB BKN050 PROB30 0703/0706 4SM -SHRA OVC025 FM070800 00000KT P6SM BKN030 FM071000 00000KT P6SM BKN022 FM071600 00000KT P6SM VCSH BKN020
NOTAMs
Click for the latest NOTAMs
NOTAMs are issued by the DoD/FAA and will open in a separate window not controlled by AirNav.

 

 
 

FBO, Fuel Providers, and Aircraft Ground Support

  
 Business Name 
 
 Contact 
 
 Services / Description 
 
Fuel Prices
 
Comments
  
City of Aliceville 205-373-6611
no information available

If you are affiliated with City of Aliceville and would like to show here your services, contact info, web link, logo, and more, click here
100LL
SS $4.25 
 Updated 29-Jan-2020
 
   write
SS=Self service
Update Fuel Prices
 

Would you like to see your business listed on this page?

 If your business provides an interesting product or service to pilots, flight crews, aircraft, or users of the George Downer Airport, you should consider listing it here.  To start the listing process, click on the button below
 
Add a business
 

Other Pages about George Downer Airport

Update a link
 
Copyright © AirNav, LLC. All rights reserved. Privacy Policy  Contact